When you browse on this site, cookies collect data to enhance your experience and personalize the content and advertising you see.
Visit our Privacy Policy to learn more. By continuing to use the site, you agree to this use of cookies and data.
  • In Österreich
  • Länderverzeichnis
  • Für 7 Tage
  • Wassertemperatur
  • Wetterkarte
  • News
  • Widgets
  • user-avatar
    Anmelden

    Stündliche Wetter Idshewan

    Heute, 2 Juni, Dienstag

    Zeit Temperatur Niederschläge Wind Luftdruck Luftfeuchtigkeit
    00:00 +18°C° 0 mm 2 m/S 690 mmHg 65%
    01:00 +17°C° 0 mm 2 m/S 690 mmHg 64%
    02:00 +17°C° 0 mm 2 m/S 689 mmHg 63%
    03:00 +17°C° 0 mm 2 m/S 689 mmHg 62%
    04:00 +18°C° 0 mm 2 m/S 689 mmHg 64%
    05:00 +18°C° 0 mm 2 m/S 689 mmHg 66%
    06:00 +19°C° 0 mm 2 m/S 689 mmHg 68%
    07:00 +21°C° 0 mm 2 m/S 689 mmHg 62%
    08:00 +24°C° 0 mm 2 m/S 689 mmHg 57%
    09:00 +26°C° 0 mm 1 m/S 690 mmHg 51%
    10:00 +27°C° 0.2 mm 1 m/S 689 mmHg 52%
    11:00 +28°C° 0.2 mm 2 m/S 689 mmHg 53%
    12:00 +28°C° 0.2 mm 2 m/S 689 mmHg 54%
    13:00 +27°C° 1 mm 2 m/S 689 mmHg 59%
    14:00 +26°C° 1 mm 2 m/S 688 mmHg 65%
    15:00 +24°C° 1 mm 3 m/S 688 mmHg 70%
    16:00 +24°C° 0.3 mm 2 m/S 688 mmHg 72%
    17:00 +24°C° 0.3 mm 2 m/S 688 mmHg 73%
    18:00 +23°C° 0.3 mm 1 m/S 688 mmHg 75%
    19:00 +22°C° 0 mm 1 m/S 688 mmHg 78%
    20:00 +20°C° 0 mm 1 m/S 688 mmHg 81%
    21:00 +18°C° 0 mm 1 m/S 687 mmHg 84%
    22:00 +18°C° 0 mm 1 m/S 687 mmHg 83%
    23:00 +17°C° 0 mm 2 m/S 687 mmHg 82%

    Morgen, 3 Juni, Mittwoch

    Zeit Temperatur Niederschläge Wind Luftdruck Luftfeuchtigkeit
    00:00 +17°C° 0 mm 2 m/S 687 mmHg 80%
    01:00 +17°C° 0 mm 2 m/S 688 mmHg 78%
    02:00 +16°C° 0 mm 2 m/S 688 mmHg 76%
    03:00 +16°C° 0 mm 3 m/S 688 mmHg 73%
    04:00 +17°C° 0 mm 3 m/S 688 mmHg 71%
    05:00 +17°C° 0 mm 3 m/S 688 mmHg 70%
    06:00 +18°C° 0 mm 3 m/S 688 mmHg 68%
    07:00 +20°C° 0 mm 2 m/S 688 mmHg 62%
    08:00 +24°C° 0 mm 2 m/S 688 mmHg 56%
    09:00 +26°C° 0 mm 2 m/S 689 mmHg 50%
    10:00 +27°C° 0 mm 2 m/S 689 mmHg 48%
    11:00 +28°C° 0 mm 3 m/S 689 mmHg 46%
    12:00 +29°C° 0 mm 3 m/S 689 mmHg 45%
    13:00 +29°C° 0 mm 3 m/S 689 mmHg 46%
    14:00 +28°C° 0 mm 3 m/S 688 mmHg 47%
    15:00 +28°C° 0 mm 3 m/S 688 mmHg 49%
    16:00 +27°C° 0.1 mm 2 m/S 688 mmHg 56%
    17:00 +26°C° 0.1 mm 2 m/S 688 mmHg 64%
    18:00 +25°C° 0.1 mm 1 m/S 688 mmHg 72%
    19:00 +23°C° 0.1 mm 1 m/S 688 mmHg 72%
    20:00 +20°C° 0.1 mm 2 m/S 689 mmHg 73%
    21:00 +18°C° 0.1 mm 2 m/S 689 mmHg 74%
    22:00 +18°C° 0.1 mm 2 m/S 689 mmHg 73%
    23:00 +17°C° 0.1 mm 2 m/S 690 mmHg 72%

    übermorgen, 4 Juni, Donnerstag

    Zeit Temperatur Niederschläge Wind Luftdruck Luftfeuchtigkeit
    00:00 +16°C° 0.1 mm 2 m/S 690 mmHg 70%
    01:00 +16°C° 0 mm 2 m/S 690 mmHg 66%
    02:00 +15°C° 0 mm 2 m/S 690 mmHg 61%
    03:00 +14°C° 0 mm 3 m/S 690 mmHg 57%
    04:00 +14°C° 0 mm 3 m/S 691 mmHg 58%
    05:00 +16°C° 0 mm 2 m/S 691 mmHg 60%
    06:00 +17°C° 0 mm 2 m/S 691 mmHg 61%
    07:00 +19°C° 0 mm 2 m/S 691 mmHg 55%
    08:00 +23°C° 0 mm 1 m/S 691 mmHg 49%
    09:00 +25°C° 0 mm 1 m/S 692 mmHg 44%
    10:00 +26°C° 0 mm 1 m/S 692 mmHg 44%
    11:00 +27°C° 0 mm 2 m/S 692 mmHg 45%
    12:00 +28°C° 0 mm 2 m/S 692 mmHg 45%
    13:00 +28°C° 0.1 mm 2 m/S 691 mmHg 46%
    14:00 +28°C° 0.1 mm 2 m/S 691 mmHg 48%
    15:00 +28°C° 0.1 mm 2 m/S 691 mmHg 49%
    16:00 +27°C° 0.1 mm 2 m/S 691 mmHg 55%
    17:00 +27°C° 0.1 mm 1 m/S 691 mmHg 61%
    18:00 +26°C° 0.1 mm 1 m/S 691 mmHg 67%
    19:00 +24°C° 0 mm 1 m/S 691 mmHg 69%
    20:00 +21°C° 0 mm 2 m/S 692 mmHg 71%
    21:00 +19°C° 0 mm 2 m/S 692 mmHg 73%
    22:00 +19°C° 0 mm 2 m/S 692 mmHg 71%
    23:00 +18°C° 0 mm 2 m/S 692 mmHg 69%

    5 Juni, Freitag

    Zeit Temperatur Niederschläge Wind Luftdruck Luftfeuchtigkeit
    00:00 +18°C° 0 mm 2 m/S 693 mmHg 67%
    01:00 +18°C° 0 mm 1 m/S 693 mmHg 69%
    02:00 +16°C° 0 mm 1 m/S 693 mmHg 70%
    03:00 +15°C° 0 mm 1 m/S 693 mmHg 72%
    04:00 +16°C° 0 mm 1 m/S 693 mmHg 72%
    05:00 +18°C° 0 mm 1 m/S 693 mmHg 72%
    06:00 +19°C° 0 mm 1 m/S 694 mmHg 72%
    07:00 +21°C° 0 mm 1 m/S 694 mmHg 65%
    08:00 +23°C° 0 mm 1 m/S 694 mmHg 59%
    09:00 +26°C° 0 mm 1 m/S 694 mmHg 53%
    10:00 +26°C° 0.1 mm 1 m/S 694 mmHg 52%
    11:00 +27°C° 0.1 mm 2 m/S 694 mmHg 51%
    12:00 +28°C° 0.1 mm 2 m/S 694 mmHg 50%
    13:00 +28°C° 0.3 mm 2 m/S 694 mmHg 50%
    14:00 +28°C° 0.3 mm 2 m/S 693 mmHg 51%
    15:00 +28°C° 0.3 mm 2 m/S 693 mmHg 51%
    16:00 +27°C° 0.5 mm 2 m/S 693 mmHg 58%
    17:00 +26°C° 0.5 mm 2 m/S 693 mmHg 65%
    18:00 +25°C° 0.5 mm 2 m/S 693 mmHg 72%
    19:00 +23°C° 0.3 mm 2 m/S 693 mmHg 74%
    20:00 +20°C° 0.3 mm 2 m/S 694 mmHg 76%
    21:00 +19°C° 0.3 mm 1 m/S 694 mmHg 78%
    22:00 +18°C° 0.2 mm 1 m/S 694 mmHg 79%
    23:00 +18°C° 0.2 mm 1 m/S 694 mmHg 79%

    6 Juni, Samstag

    Zeit Temperatur Niederschläge Wind Luftdruck Luftfeuchtigkeit
    00:00 +18°C° 0.2 mm 1 m/S 694 mmHg 80%
    01:00 +16°C° 0.5 mm 2 m/S 694 mmHg 81%
    02:00 +16°C° 0.5 mm 2 m/S 694 mmHg 83%
    03:00 +15°C° 0.5 mm 2 m/S 694 mmHg 84%
    04:00 +16°C° 0.1 mm 1 m/S 694 mmHg 83%
    05:00 +18°C° 0.1 mm 1 m/S 695 mmHg 82%
    06:00 +19°C° 0.1 mm 1 m/S 695 mmHg 80%
    07:00 +20°C° 0.1 mm 1 m/S 695 mmHg 77%
    08:00 +21°C° 0.1 mm 1 m/S 695 mmHg 74%
    09:00 +23°C° 0.1 mm 2 m/S 695 mmHg 71%
    10:00 +23°C° 0.2 mm 2 m/S 694 mmHg 70%
    11:00 +24°C° 0.2 mm 2 m/S 694 mmHg 69%
    12:00 +25°C° 0.2 mm 3 m/S 694 mmHg 68%
    13:00 +25°C° 0.3 mm 2 m/S 694 mmHg 69%
    14:00 +25°C° 0.3 mm 2 m/S 694 mmHg 70%
    15:00 +25°C° 0.3 mm 2 m/S 693 mmHg 71%
    16:00 +25°C° 0.3 mm 2 m/S 693 mmHg 73%
    17:00 +24°C° 0.3 mm 1 m/S 693 mmHg 75%
    18:00 +24°C° 0.3 mm 1 m/S 693 mmHg 77%
    19:00 +22°C° 0.5 mm 1 m/S 694 mmHg 79%
    20:00 +21°C° 0.5 mm 1 m/S 694 mmHg 81%
    21:00 +19°C° 0.5 mm 1 m/S 694 mmHg 84%
    22:00 +19°C° 0 mm 1 m/S 694 mmHg 83%
    23:00 +18°C° 0 mm 1 m/S 694 mmHg 83%

    7 Juni, Sonntag

    Zeit Temperatur Niederschläge Wind Luftdruck Luftfeuchtigkeit
    00:00 +18°C° 0 mm 1 m/S 694 mmHg 83%
    01:00 +18°C° 0 mm 1 m/S 694 mmHg 83%
    02:00 +16°C° 0 mm 1 m/S 694 mmHg 83%
    03:00 +16°C° 0 mm 1 m/S 694 mmHg 83%
    04:00 +18°C° 0 mm 1 m/S 694 mmHg 82%
    05:00 +19°C° 0 mm 1 m/S 694 mmHg 82%
    06:00 +20°C° 0 mm 1 m/S 695 mmHg 82%
    07:00 +21°C° 0 mm 1 m/S 695 mmHg 77%
    08:00 +23°C° 0 mm 1 m/S 695 mmHg 72%
    09:00 +24°C° 0 mm 2 m/S 695 mmHg 68%
    10:00 +25°C° 0 mm 2 m/S 695 mmHg 66%
    11:00 +26°C° 0 mm 2 m/S 695 mmHg 65%
    12:00 +27°C° 0 mm 2 m/S 694 mmHg 63%
    13:00 +27°C° 0.1 mm 2 m/S 694 mmHg 63%
    14:00 +28°C° 0.1 mm 2 m/S 694 mmHg 63%
    15:00 +28°C° 0.1 mm 2 m/S 694 mmHg 63%
    16:00 +27°C° 0.1 mm 2 m/S 694 mmHg 67%
    17:00 +27°C° 0.1 mm 1 m/S 694 mmHg 71%
    18:00 +27°C° 0.1 mm 1 m/S 694 mmHg 74%
    19:00 +25°C° 0 mm 1 m/S 694 mmHg 78%
    20:00 +23°C° 0 mm 1 m/S 694 mmHg 82%
    21:00 +21°C° 0 mm 1 m/S 694 mmHg 86%
    22:00 +21°C° 0 mm 1 m/S 694 mmHg 86%
    23:00 +19°C° 0 mm 2 m/S 694 mmHg 86%
    Mehr zeigen